Wind_Speed
13 14 15 16 17 19 20 21 21 22 23 25 26 26 27 28 29 29 29 29 29 29 29 29 31 32 32 33 34 31 30 28 30 28 26 24 26 28 30 29 28 34 34 32 30 28 31
14 15 16 18 19 20 22 22 24 26 27 28 29 30 30 30 30 29 30 33 33 32 31 30 30 31 32 36 26 26 26 32 32 31 26 26 28 29 29 26 25 22 20 29 31 33 34
15 17 18 19 19 21 22 24 26 28 29 30 31 30 30 31 31 32 32 32 32 33 33 32 31 32 33 26 29 28 28 26 27 28 28 26 26 27 24 29 34 34 35 34 36 36 34
16 18 19 21 22 24 26 27 29 31 31 32 33 34 34 34 33 34 34 33 31 30 31 31 32 35 38 32 29 29 28 29 32 30 31 31 31 34 35 27 22 25 29 37 39 29 30
17 18 20 23 25 27 29 30 30 31 32 32 33 36 37 39 38 37 36 34 31 29 29 29 31 33 34 27 19 16 20 26 29 32 35 34 32 34 33 32 34 26 30 26 25 21 27
19 21 23 25 27 28 30 31 33 34 35 37 37 38 39 40 39 38 35 32 30 29 28 25 28 20 25 27 30 25 22 20 26 29 32 33 35 36 34 32 31 29 33 37 32 21 25
23 25 27 28 29 30 31 32 34 36 39 38 37 37 34 35 36 36 34 36 35 34 26 28 32 34 38 40 39 33 26 22 23 27 28 29 34 40 39 37 39 37 33 36 33 20 30
24 26 28 29 30 33 34 34 34 34 34 34 34 33 34 34 34 34 34 37 38 42 48 33 32 35 35 42 36 34 29 26 26 29 24 24 37 31 29 26 30 33 38 39 36 33 29
26 28 29 31 33 34 35 34 34 35 35 35 36 36 35 36 36 36 35 35 37 41 46 42 24 18 17 19 18 27 25 25 26 25 28 32 26 11 23 30 34 38 37 35 35 29 31
28 29 31 33 34 35 35 35 35 36 37 37 37 38 39 35 38 37 38 37 37 37 33 21 11 8 10 9 10 12 17 27 31 32 33 31 38 40 35 32 30 38 35 31 33 28 28
29 30 32 34 35 36 36 37 38 39 40 39 38 39 40 43 41 37 37 36 32 29 8 15 12 13 13 11 10 9 14 20 28 24 20 24 21 22 39 44 38 44 31 28 30 29 29
31 33 34 35 36 36 38 39 41 42 41 40 41 43 43 41 42 38 36 32 26 10 9 9 11 15 16 15 18 20 15 21 21 26 32 37 29 24 30 25 23 28 24 26 21 20 13
32 34 36 36 37 39 39 41 42 45 47 45 44 46 47 46 42 38 31 24 9 8 9 8 11 15 17 16 19 26 27 30 29 19 32 35 40 37 41 35 27 23 19 4 6 8 10
34 36 37 37 38 40 42 45 46 49 51 53 52 46 46 43 39 30 22 12 8 12 16 21 18 25 24 22 29 23 28 29 30 29 34 24 23 28 30 40 36 38 40 12 9 7 8
35 36 37 39 41 42 44 47 49 52 53 54 53 48 42 31 29 27 17 6 7 15 17 25 34 31 25 14 22 22 22 26 22 30 35 25 32 26 26 26 32 29 42 48 28 34 7
36 36 37 40 42 44 47 48 49 49 48 47 45 42 33 31 26 21 10 10 13 20 22 24 22 14 29 32 36 35 32 23 33 23 20 17 28 35 28 20 26 32 21 20 27 9 15
35 37 39 41 44 46 46 46 45 44 42 42 41 39 29 33 27 16 8 10 18 18 22 18 28 33 34 31 28 31 21 32 27 31 24 30 17 25 25 16 18 24 31 27 19 24 3
35 38 41 43 43 43 42 40 37 36 36 36 39 33 30 28 17 16 16 18 21 20 23 21 24 20 21 26 28 28 27 24 31 29 28 19 19 16 27 32 26 13 16 16 18 13 21
37 40 41 41 40 37 33 31 32 34 36 40 38 33 33 24 20 24 26 27 19 29 27 28 25 27 26 34 30 21 29 27 24 30 27 26 9 10 18 17 20 16 19 21 25 19 24
38 39 39 37 31 28 28 30 32 33 34 34 36 33 31 23 28 27 29 25 31 26 25 23 31 24 25 24 27 25 33 26 27 29 24 30 16 12 8 18 21 24 32 28 19 12 5
36 35 31 24 24 27 28 29 30 31 32 33 32 29 28 31 30 27 23 25 26 29 27 23 29 26 26 28 35 30 30 37 34 32 24 20 22 21 19 20 20 19 18 20 21 23 15
31 24 21 23 25 27 29 29 28 30 30 31 28 29 30 27 27 25 23 26 27 29 29 26 26 29 21 27 26 31 32 36 34 36 29 30 30 28 22 15 15 14 15 16 8 12 8
19 20 22 24 26 29 30 31 32 31 31 31 27 28 29 29 27 25 24 25 28 29 27 25 25 25 27 27 28 31 32 35 37 35 31 29 26 20 13 8 9 9 13 11 3 6 6
18 21 23 26 28 29 30 31 32 32 31 28 27 28 29 33 28 25 24 27 26 24 27 24 23 24 23 24 30 32 29 25 22 25 23 26 22 19 9 6 2 8 4 4 5 5 6
22 23 25 26 29 30 31 31 32 31 29 28 27 26 27 32 30 23 30 29 28 28 27 24 27 24 23 29 35 26 29 15 18 10 12 14 16 8 1 1 6 4 3 5 1 4 5
24 25 26 28 30 31 32 32 32 31 29 30 27 24 24 29 27 31 29 30 29 34 30 28 24 21 27 24 17 9 9 19 11 10 12 4 9 8 3 2 2 6 6 4 3 3 10
25 26 29 30 31 33 34 33 31 29 29 29 28 24 21 27 30 31 31 28 29 26 28 28 31 31 13 19 19 13 13 15 2 6 8 7 5 7 10 3 1 12 5 2 5 7 9
28 30 30 31 32 32 31 31 31 30 29 30 28 24 19 25 31 27 30 27 26 21 25 30 24 13 14 13 10 8 11 11 10 6 8 5 7 5 3 1 2 11 6 5 9 11 11
29 29 30 31 32 32 33 34 33 33 32 31 29 24 23 24 29 32 27 24 22 24 25 24 18 12 8 14 17 22 26 16 7 3 7 3 2 3 4 1 5 9 6 1 5 8 9
Wind_Direction
349 344 339 337 335 336 335 333 332 331 331 329 327 325 323 321 319 317 314 308 305 304 302 299 298 296 293 289 289 276 264 258 258 262 263 255 249 251 244 253 254 258 266 266 266 262 259
338 336 334 334 334 332 331 330 329 328 328 325 323 321 320 317 316 316 313 308 307 304 301 297 294 293 291 292 293 283 263 253 254 255 248 244 245 248 249 249 240 252 274 267 260 259 254
335 333 332 330 328 328 331 330 330 328 326 325 324 323 322 320 322 320 314 308 306 305 302 300 296 291 287 295 285 278 270 255 248 242 241 240 240 235 248 253 247 246 249 248 255 264 258
335 334 333 334 335 336 335 334 332 330 328 327 327 326 326 325 325 324 321 312 305 302 301 299 297 294 291 291 282 275 266 252 246 243 240 240 235 237 231 231 248 263 249 254 259 269 267
339 337 338 339 338 335 334 333 331 328 326 326 325 323 323 322 323 324 324 319 312 308 303 301 297 294 292 287 283 272 265 253 248 245 245 245 246 245 243 241 251 246 252 255 276 263 258
342 342 340 338 335 334 333 331 329 325 324 323 322 321 321 321 322 324 326 323 319 313 309 305 301 296 290 290 287 283 272 260 252 246 244 240 239 242 237 229 228 239 240 258 261 275 249
344 341 339 336 333 332 332 329 325 322 322 323 322 323 326 324 324 325 326 323 321 318 317 308 298 291 282 281 276 272 266 258 252 245 242 242 238 231 236 245 252 250 254 265 259 266 253
339 336 334 334 333 332 331 330 327 327 329 331 332 333 333 331 329 327 328 327 326 320 316 316 301 283 271 270 272 267 259 252 241 242 237 229 241 247 252 253 252 254 259 263 271 256 266
337 336 335 334 332 333 333 332 331 330 330 331 331 331 332 330 327 325 326 326 324 321 319 320 307 285 274 267 272 254 251 242 241 237 233 238 244 269 248 242 240 244 250 256 262 264 262
334 334 334 334 333 333 333 332 331 330 329 329 330 329 327 327 323 323 324 323 323 323 318 318 308 289 274 263 265 241 241 238 232 242 243 253 255 244 239 242 246 251 249 260 263 264 259
333 333 334 333 333 333 333 332 331 329 328 329 331 330 329 326 324 322 320 319 318 325 322 301 288 280 276 269 275 269 243 234 233 236 224 247 257 238 235 243 243 248 251 253 250 253 257
332 333 334 333 333 332 332 332 330 327 327 329 330 328 324 321 318 319 317 313 315 318 250 278 287 284 286 286 277 268 260 245 248 242 236 252 248 245 246 255 246 235 237 244 248 234 246
332 333 333 332 333 332 332 331 329 326 326 328 328 326 323 323 322 319 315 312 305 229 300 285 285 292 288 282 284 285 279 266 255 251 258 270 262 261 255 252 241 224 210 195 222 202 236
331 333 332 332 332 332 332 328 327 325 326 326 328 329 326 324 323 325 324 309 224 287 277 279 286 281 299 306 297 278 270 267 273 270 268 273 271 254 247 238 230 221 205 197 215 194 235
331 332 331 332 331 331 328 326 326 327 329 329 330 331 332 337 333 329 316 244 289 315 317 319 293 308 307 293 329 305 291 280 284 276 265 265 264 268 247 252 232 234 214 235 256 267 292
330 330 331 330 329 328 327 328 328 330 331 331 335 341 347 344 344 335 311 278 286 307 326 326 322 301 320 319 318 323 314 287 309 295 306 313 297 263 275 250 233 233 230 238 231 238 245
329 329 328 328 329 328 330 331 333 335 337 342 346 352 352 347 354 24 3 318 307 303 314 324 313 307 303 309 311 311 304 306 296 287 309 290 281 289 273 260 258 250 249 252 258 232 256
328 329 328 330 332 332 334 338 345 349 353 355 358 3 0 351 31 5 344 325 310 313 321 316 308 304 313 314 311 310 305 300 302 310 322 301 287 296 282 259 267 254 251 244 258 254 243
330 330 332 333 336 341 350 359 3 6 5 4 5 5 10 18 5 344 332 326 329 327 321 315 309 303 295 305 304 301 304 309 321 324 319 317 305 333 320 291 248 267 299 285 269 280 226
332 333 335 340 348 359 3 6 8 6 3 4 3 4 5 3 351 336 334 333 330 337 325 318 323 305 307 310 308 288 297 307 297 300 302 301 288 263 285 291 301 310 307 310 301 275 266
335 338 344 359 1 2 3 4 3 359 358 356 1 356 354 343 353 348 345 327 335 330 326 317 332 328 306 303 307 291 295 298 308 305 306 307 282 275 283 277 279 294 307 304 311 289 312
340 351 359 359 358 357 356 353 351 349 349 349 351 345 344 348 348 348 350 336 324 319 324 325 323 329 315 303 308 301 298 295 298 306 294 296 295 292 277 298 274 294 292 283 299 305 330
352 355 354 352 351 349 348 348 345 342 341 343 343 338 334 336 340 339 337 329 330 324 326 323 320 316 317 316 308 304 298 299 297 291 291 277 277 278 285 276 305 286 318 350 355 358 328
349 346 343 342 343 345 345 344 343 338 336 335 337 332 327 326 326 333 325 330 325 336 322 328 332 319 319 312 311 308 310 303 307 304 283 261 260 281 250 277 120 166 271 32 54 57 67
338 339 339 342 342 341 340 339 337 334 331 331 331 327 320 318 323 330 325 323 317 317 322 322 328 321 312 318 320 323 328 324 332 324 297 267 259 254 268 310 149 204 290 294 331 355 356
338 339 340 338 336 337 336 333 331 331 328 326 329 325 316 314 323 311 317 323 318 322 320 331 331 330 317 316 320 299 298 303 323 340 14 328 250 265 333 358 249 338 302 233 228 289 340
334 336 334 333 334 333 332 331 331 332 329 325 326 321 305 300 307 313 315 317 314 317 317 328 330 328 336 325 306 299 311 313 336 360 353 358 339 308 279 274 179 348 8 218 197 283 302
331 331 331 332 332 332 333 333 332 330 327 326 325 317 301 299 303 304 310 310 307 314 315 326 333 316 337 338 308 347 318 344 331 350 340 343 338 340 337 290 282 335 332 227 231 265 284
329 330 331 331 329 329 327 327 326 324 322 321 318 317 309 299 295 304 300 302 306 305 308 323 326 333 298 320 305 311 308 300 306 305 300 277 324 339 341 199 283 328 359 296 275 277 282
Height
3137 3136 3133 3131 3128 3126 3123 3120 3117 3113 3110 3107 3103 3100 3097 3093 3090 3086 3082 3078 3074 3071 3068 3064 3059 3055 3053 3052 3049 3052 3052 3053 3052 3053 3053 3054 3053 3053 3052 3053 3055 3049 3051 3052 3053 3053 3053
3136 3134 3132 3129 3127 3124 3121 3117 3113 3109 3105 3101 3098 3095 3091 3086 3083 3080 3076 3072 3068 3064 3060 3057 3052 3049 3046 3042 3043 3040 3042 3043 3044 3044 3046 3047 3047 3048 3047 3048 3049 3047 3045 3044 3045 3045 3045
3135 3132 3130 3127 3124 3120 3117 3114 3110 3105 3101 3097 3093 3089 3085 3081 3078 3073 3069 3064 3061 3058 3054 3050 3045 3041 3038 3041 3035 3033 3033 3035 3035 3037 3039 3041 3043 3043 3042 3043 3042 3040 3039 3038 3037 3038 3037
3133 3131 3128 3125 3121 3117 3113 3109 3106 3102 3097 3092 3088 3083 3079 3074 3071 3068 3063 3058 3053 3050 3047 3043 3038 3032 3027 3028 3027 3025 3025 3026 3027 3030 3031 3033 3034 3033 3033 3036 3035 3035 3034 3029 3029 3033 3032
3131 3128 3125 3122 3118 3114 3111 3107 3102 3098 3093 3088 3083 3078 3073 3068 3064 3059 3054 3049 3046 3043 3040 3035 3032 3028 3021 3019 3019 3019 3017 3018 3019 3021 3023 3026 3027 3026 3030 3030 3030 3028 3022 3023 3024 3028 3027
3129 3125 3122 3119 3115 3110 3106 3102 3098 3094 3088 3083 3078 3073 3069 3062 3058 3054 3050 3045 3039 3037 3034 3029 3024 3024 3018 3014 3014 3013 3013 3012 3012 3015 3016 3018 3018 3017 3019 3021 3012 3016 3019 3017 3017 3022 3020
3126 3123 3120 3117 3113 3108 3104 3099 3094 3089 3084 3078 3072 3067 3063 3058 3054 3048 3045 3041 3037 3030 3029 3025 3020 3015 3007 3005 3004 3004 3005 3007 3007 3007 3009 3011 3009 3002 3009 3012 3013 3015 3013 3010 3013 3017 3014
3125 3121 3118 3113 3109 3105 3100 3095 3089 3084 3078 3073 3068 3064 3060 3055 3050 3044 3039 3034 3029 3022 3007 3018 3011 3002 3000 2994 2996 2996 3000 3002 3000 2998 3003 3005 2993 3001 3005 3007 3008 3008 3007 3004 3005 3009 3009
3123 3119 3114 3110 3105 3101 3096 3091 3085 3080 3075 3070 3066 3061 3057 3053 3048 3042 3036 3032 3026 3018 3008 3002 2997 2994 2993 2992 2990 2989 2992 2993 2992 2994 2995 2993 2991 2996 2998 2998 3000 2998 2997 2998 2998 3003 3001
3119 3115 3110 3106 3102 3097 3091 3085 3080 3075 3070 3066 3062 3056 3051 3050 3045 3039 3033 3028 3023 3016 3004 2995 2993 2990 2991 2989 2988 2986 2985 2989 2989 2987 2990 2985 2984 2985 2989 2987 2991 2986 2992 2993 2994 2997 2991
3116 3112 3107 3103 3098 3092 3087 3081 3074 3069 3066 3062 3058 3052 3046 3038 3036 3035 3029 3024 3020 3018 3012 2995 2990 2989 2987 2989 2988 2987 2984 2981 2980 2982 2984 2976 2975 2976 2974 2972 2981 2973 2983 2984 2985 2986 2987
3112 3108 3102 3097 3092 3086 3081 3075 3070 3064 3060 3057 3052 3045 3039 3037 3029 3026 3022 3018 3017 3020 3006 2994 2990 2987 2986 2984 2984 2981 2981 2981 2980 2976 2973 2968 2973 2970 2970 2971 2972 2975 2975 2978 2978 2979 2975
3108 3103 3097 3092 3087 3081 3075 3070 3063 3057 3051 3049 3046 3039 3031 3024 3021 3017 3014 3012 3014 3010 2999 2992 2989 2986 2983 2982 2978 2976 2977 2973 2971 2969 2963 2962 2957 2962 2960 2964 2966 2970 2971 2973 2977 2972 2957
3103 3097 3092 3087 3081 3076 3069 3064 3057 3050 3043 3036 3032 3032 3023 3017 3011 3008 3006 3009 3007 2995 2992 2985 2981 2978 2980 2981 2977 2976 2968 2966 2967 2967 2960 2956 2949 2950 2950 2945 2949 2952 2955 2956 2950 2953 2946
3097 3092 3087 3081 3076 3070 3063 3057 3050 3044 3036 3027 3021 3017 3012 3007 3004 3002 3001 3001 2999 2994 2989 2981 2975 2973 2974 2974 2973 2971 2967 2964 2965 2965 2960 2949 2938 2943 2941 2940 2946 2942 2944 2938 2945 2940 2942
3092 3087 3082 3076 3070 3064 3058 3050 3044 3036 3028 3021 3015 3008 3002 3000 2998 2995 2995 2996 2996 2992 2987 2984 2982 2980 2974 2973 2967 2966 2963 2958 2948 2953 2945 2941 2934 2935 2940 2938 2939 2939 2944 2944 2941 2939 2936
3087 3082 3076 3071 3065 3058 3051 3044 3037 3029 3022 3015 3010 3003 2999 2996 2993 2993 2995 2994 2991 2991 2986 2984 2980 2977 2974 2972 2969 2964 2961 2958 2950 2947 2946 2941 2937 2930 2934 2935 2938 2938 2934 2934 2935 2931 2927
3082 3076 3072 3067 3061 3053 3046 3038 3031 3024 3017 3013 3006 3003 3000 2995 2995 2994 2994 2993 2990 2985 2985 2981 2977 2973 2971 2968 2966 2963 2959 2955 2953 2946 2943 2938 2931 2931 2929 2930 2930 2930 2929 2930 2930 2925 2924
3078 3073 3068 3061 3055 3048 3041 3035 3029 3022 3015 3009 3006 3003 2999 2995 2995 2993 2992 2989 2986 2983 2980 2975 2973 2969 2967 2964 2961 2956 2953 2951 2949 2944 2943 2938 2933 2928 2923 2923 2925 2927 2924 2922 2922 2922 2916
3075 3069 3063 3057 3050 3045 3040 3034 3028 3022 3017 3013 3007 3002 2997 2995 2995 2992 2987 2983 2980 2980 2975 2971 2968 2963 2960 2957 2956 2952 2948 2945 2944 2943 2943 2937 2931 2932 2929 2931 2930 2925 2921 2921 2920 2917 2913
3070 3064 3059 3054 3049 3043 3038 3032 3028 3023 3017 3012 3007 3003 2999 2996 2992 2988 2986 2982 2976 2974 2972 2968 2962 2960 2957 2952 2949 2945 2943 2938 2936 2933 2932 2932 2926 2924 2924 2925 2925 2925 2923 2920 2917 2915 2914
3066 3061 3057 3053 3048 3042 3037 3032 3028 3023 3017 3012 3009 3004 2998 2994 2991 2987 2984 2980 2975 2972 2970 2962 2960 2954 2951 2950 2948 2940 2937 2932 2929 2925 2925 2924 2922 2921 2919 2918 2919 2918 2920 2918 2915 2913 2913
3064 3060 3056 3052 3047 3041 3035 3030 3025 3020 3015 3009 3005 3002 2996 2993 2989 2985 2983 2978 2971 2969 2963 2963 2957 2951 2947 2945 2940 2935 2931 2926 2923 2919 2917 2920 2918 2917 2913 2914 2913 2914 2910 2911 2909 2906 2908
3062 3059 3055 3050 3045 3039 3034 3028 3023 3018 3013 3007 3004 2999 2994 2988 2985 2983 2979 2976 2970 2967 2961 2957 2954 2949 2945 2940 2934 2929 2924 2918 2915 2912 2911 2909 2913 2913 2907 2910 2915 2916 2913 2911 2909 2910 2910
3061 3056 3052 3047 3042 3037 3032 3027 3021 3016 3010 3005 3000 2996 2990 2984 2982 2977 2976 2972 2966 2963 2958 2954 2950 2946 2940 2936 2929 2921 2916 2913 2911 2907 2906 2906 2909 2908 2907 2908 2911 2913 2913 2913 2910 2910 2908
3058 3054 3049 3044 3039 3034 3028 3023 3018 3012 3007 3002 2998 2993 2989 2983 2979 2975 2971 2968 2962 2956 2950 2949 2945 2942 2938 2931 2929 2925 2919 2916 2912 2910 2907 2907 2907 2909 2908 2908 2910 2913 2911 2910 2911 2912 2912
3055 3051 3046 3041 3035 3030 3025 3020 3014 3008 3003 2998 2993 2988 2984 2979 2975 2971 2968 2964 2960 2956 2950 2945 2939 2934 2932 2930 2928 2924 2919 2916 2911 2911 2909 2909 2908 2908 2908 2907 2909 2910 2911 2911 2914 2919 2911
3051 3047 3042 3037 3031 3026 3021 3015 3010 3004 2998 2993 2990 2985 2980 2974 2970 2966 2964 2960 2957 2953 2949 2945 2940 2936 2933 2930 2926 2922 2920 2916 2914 2913 2911 2912 2910 2908 2907 2906 2909 2909 2909 2910 2911 2909 2909
3047 3043 3038 3033 3027 3022 3016 3011 3005 2999 2993 2987 2982 2978 2975 2971 2967 2962 2958 2956 2953 2948 2945 2943 2940 2936 2934 2932 2929 2924 2920 2917 2914 2912 2911 2913 2912 2912 2913 2911 2910 2907 2908 2909 2909 2908 2908